Погода в Евлахе

Погода в Евлахе : погода сейчас, прогноз погоды и архив. Всё, что Вы хотите узнать о погоде в Евлахе!

Поиск расширенной информации на нашем сайте:

Другие новости

Новости СМИ2

Главная страница сайта

Новости сайта

03.07.2017

Напоминаем, что на нашем специализированном сайте Метеоцентр.Азия вы можете получить высокодетализированные автоматические прогнозы погоды по пунктам России, СНГ и мира в авиационном формате (включающие направление и скорость ветра, видимость, явления погоды, количество и форму облачности, нижнюю и верхнюю границу облачности).


Погода в Евлахе - сегодня

Время (UTC), дата Ветер
(°,м/с) 
Видим.   Явления Облачность Т
(°С)
Тd
(°С)
f(%) Тe
(°С)
Pmin
(гПа)
dP
(гПа)
Po
(мм)
O2
(г/м3)
Тmin Tmax R s Состояние
почвы
00 17.09.17 140 (ЮВ) 20000 м    ясно 
+20.7 +15.7 73 +30  1018.2  762  282           
03 17.09.17 тихо ()   20000 м    ясно 
+17.2 +14.2 83 +24  1019.5  1.2  763  286           
09 17.09.17 170 (Ю) 20000 м    ясно 
+30.7 +11.8 31 +34  1019  -1.4  763  274           
12 17.09.17 150 (ЮВ) 20000 м    ясно 
+32.8 +3.4 16 +33  1017  -2  761  273           
15 17.09.17 160 (Ю) 20000 м    ясно 
+28.1 +8.9 30 +28  1017  761  277           
21 17.09.17 130 (ЮВ) 20000 м    ясно 
+21 +14.7 67 +29  1018.3  0.5  762  282           
00 18.09.17 270 (З) 20000 м    ясно 
+17.8 +12.8 73 +24  1018.5  0.1  763  286           
03 18.09.17 тихо ()   20000 м    ясно 
+16.8 +13.8 82 +23  1019.3  0.8  763  287           
09 18.09.17 160 (Ю) 20000 м    ясно 
+30.4 +9.8 28 +31  1017.9  -1.9  762  275           
12 18.09.17 170 (Ю) 20000 м    ясно 
+32.5 +6.2 19 +33  1015.8  -2.1  761  273           
15 18.09.17 190 (Ю) 20000 м    ясно 
+28.5 +8 28 +29  1015.4  -0.4  760  276           
21 18.09.17 110 (В) 20000 м    ясно 
+17.9 +11.8 67 +22  1016.7  0.4  761  286           
00 19.09.17 280 (З) 20000 м    ясно 
+16.3 +11.1 71 +19  1016.8  0.1  761  287           
03 19.09.17 270 (З) 20000 м    ясно 
+15.5 +9.5 67 +16  1016.9  0.1  761  289           
09 19.09.17 120 (ЮВ) 20000 м    ясно 
+30.3 +8.8 26 +30  1015.3  -1.3             
12 19.09.17 170 (Ю) 20000 м    ясно 
+31.9 +8.5 23 +32  1013.9  -1.7  759  273           
15 19.09.17 160 (Ю) 20000 м    3/0 средняя 
[Ac trans]
+27.3 +11.9 38 +31  1014.2  0.3  759  276           
21 19.09.17 150 (ЮВ) 20000 м    ясно 
+20.8 +14.9 69 +29  1016.2  761  282           
00 20.09.17 360 (С) 20000 м    ясно 
+18.5 +15.1 81 +28  1016.2  761  284           
03 20.09.17 280 (З) 10 км    5/0 средняя 
[Ac trans]
+18.2 +14.4 78 +26  1016.3  0.1  761  285           
09 20.09.17 120 (ЮВ) 20000 м    ясно 
+29.8 +16.6 45 +41  1015.2  -1.8  760  273           
12 20.09.17 150 (ЮВ) 20000 м    ясно 
+31.6 +15.2 37 +40  1013.4  -1.8  759  271           
15 20.09.17 190 (Ю) 20000 м    ясно 
+27.7 +16 49 +38  1013.2  -0.2  759  274           
21 20.09.17 120 (ЮВ) 20000 м    ясно 
+20.4 +15.7 74 +30  1014.8  0.4  760  282           
00 21.09.17 тихо ()   20000 м    ясно 
+19.1 +14.5 75 +27  1014.8  760  283           
Время (UTC), дата Ветер
(°,м/с) 
Видим.   Явления Облачность Т
(°С)
Тd
(°С)
f(%) Тe
(°С)
Pmin
(гПа)
dP
(гПа)
Po
(мм)
O2
(г/м3)
Тmin Tmax R s Состояние
почвы

Для получения пояснительной информации подведите курсор к названию столбца.

ПОГОДА в Евлахе - архив

Всё, что Вы хотите узнать о погоде в Евлахе - удобно и подробно!

Выберите нужную дату (начиная с 1 января 2015* года) и нажмите кнопку "Найти".
Будут отображены архивные сводки погоды по пункту Евлах, начиная с указанной даты.


Отображать данные в формате CSV (для использования в таблицах Excel)


Внимание! Наш архив погоды предназначен исключительно для личного некоммерческого использования в познавательных целях. Если Вам необходимы официальные справки о состоянии погоды (для производственных, юридических, коммерческих и т.п. целей), обращайтесь в органы Росгидромета.

*Примечание: данная дата относится к архиву по метеостанциям СССР (Россия, СНГ, Балтия).
Архив по метеостанциям Зарубежной Европы и Азии (кроме Китая) хранится 10 дней, по другим регионам земного шара (Китай, Африка, Америка, Австралия, Океания) - 1 день.

Евлах - район местоположения метеостанции


Название, широта, долгота, высота метеостанции:
Евлах (АМСГ) 40.6°ш. 47.2°д. 15 м над ур. моря [Азербайджан]

Дополнительная информация

В oтличие oт бoльшинства пoгoдных сайтoв мы публикуем пoдрoбную метеoинфoрмацию в детальнoм прoфессиoнальнoм фoрмате.

Характеристики температуры и влажнoсти вoздуха измеряются на высoте 2 м в тени вдали oт зданий и деревьев.
Скoрoсть ветра измеряется на высoте 10 м (на урoвне рoста челoвека скoрoсть ветра ниже в 1.5-2 раза). Если метеoстанция нахoдится в гoрoде или в лесу, тo скoрoсть ветра занижена на 2-4 м/с пo сравнению с oткрытым местoм. Скoрoсть ветра над акватoриями крупных рек и oзёр, а также на вершинах хoлмoв на 2-5 м/с выше, чем в oбычных услoвиях.
Атмoсфернoе давление в разных тoчках местнoсти мoжет значительнo oтличаться oт давления на метеoстанции, в зависимoсти oт услoвий рельефа (при пoдъёме на 10 м давление пoнижается примернo на 1 мм рт.ст.).